Showing default

PROPCUBE 1, 40976

Orbit data source: Space-Track

PROPCUBE 1, 40976 is a payload satellite owned by USN PGS (US) in LEO that was launched on Thu, 08 Oct 2015 UTC via an ATLAS V 401 launch vehicle from the Air Force Western Test Range (AFWTR). Payloads include a variety of satellites, spacecraft, and rockets equipped with specific instruments for various scientific and technological missions. These include communications satellites like Starlink; space stations such as the ISS; scientific satellites like the Hubble; Earth observation satellites from companies like Planet Labs, Umbra, and HawkEye 360; GPS; miniature CubeSats for education and research; and military/defense satellites.

Loading next visibility...
PROPCUBE 1 details
Identifier
40976, 2015-058N
Orbit
LEO
Last TLE update18 hours ago
Origin
Flag of USUSN PGS (US)
ManufacturerTyvak NSS
MissionOperational Commercial Technology
Bus & MotorCUBESAT 1U, Unknown motor
Mass1 kg wet, 1 kg dry
Launch date (UTC)
2015-10-08 (9 years ago)
Launch vehicle
ATLAS V 401
Launch site
Air Force Western Test Range (AFWTR)
Object type
Payload
Rocket body
Debris
Shape & HBRBox, 0.1 m
Radar Cross Section0.015 m², Small (<0.1 m²)

Expand to show TLE details & history

TLE from 18 hours ago
0 PROPCUBE 1
1 40976U 15058N   24347.61176003  .00004653  00000-0  42698-3 0  9999
2 40976  64.7744 199.2425 0184894 253.2121 104.8633 14.83961032 34247
Epoch: 2024-12-12T14:40Z
Definitive object data (Epoch: 2024-12-12T14:40:56.066Z)
Latitude-0.00001°
Longitude-102.78071°
Altitude654.247 km
Speed7.512 km/s
True Right ascension13h 16m 58s
True Declination0° 00' 00"
Sunlit
Object was in daylight at TLE epoch
Visualization TLE readout
Latitude47.95083°
Longitude-73.79033°
Altitude746.128 km
Speed7.421 km/s
Apparent Right ascension17h 14m 42s
Apparent Declination8° 07' 36"
Sunlit
Object is in daylight
Visualization observer readout
Local Sidereal Time07:13:14
Azimuth36.535° NE
Elevation-34.701°
Doppler factor1
Orbital elements
Apogee altitude744.727 km
Perigee altitude486.113 km
Semi-major axis6,993.557 km
Eccentricity0.0184894
Inclination64.7744°
RAAN199.2425°
Arg. of periapsis253.2121°
True anomaly106.89864°
Mean anomaly104.8633°
Eccentric anomaly105.88222°
Mean motion3.71104 °/min
BSTAR0.00042698
Orbital period97.01 mins
Loading maneuver chart data...
Loading historical data...
Loading historical data...
Loading historical data...
Loading historical data...
Loading historical data...
Loading historical data...
Loading historical data...

PROPCUBE 1 Visibility forecast

Observer location: undefined°, undefined

Span
Click to sort rows by Start time (UTC) header in descending order
Start Az.
Max El. time (UTC)
Max El. Az.
Max El.
End time (UTC)
End Az.
8 mins2024-12-13 15:03:35.025Z167.31° S2024-12-13 15:07:35.025Z112.441° ESE24.461°2024-12-13 15:11:35.025Z57.015° ENE
7 mins2024-12-13 16:44:35.025Z251.513° W2024-12-13 16:47:35.025Z315.957° NNW33.09°2024-12-13 16:51:35.025Z15.961° NNE
5 mins2024-12-13 23:34:35.025Z12.784° NNE2024-12-13 23:36:35.025Z44.626° NE20.047°2024-12-13 23:39:35.025Z88.167° E
7 mins2024-12-14 01:13:35.025Z314.372° NW2024-12-14 01:16:35.025Z254.255° W39.309°2024-12-14 01:20:35.025Z167.946° S
|